Location: Demmingen
(48.6757°N, 10.4375°E)
Time: 03:45:49
(UTC+00:00)

IDEFIX/ARIANE 42P - Pass Details

Date: 23 May 2024
Orbit: 783 x 799 km, 98.5° (Epoch: 19 June)

Event Time Altitude Azimuth Distance (km) Brightness Sun altitude
Rises 01:17:23 0° 13° (NNE) 3,317 7.3 -15.5°
Reaches altitude 10° 01:19:44 10° 13° (NNE) 2,384 6.3 -15.3°
Maximum altitude 01:25:01 85° 287° (WNW) 809 2.6 -14.9°
Enters shadow 01:28:35 21° 199° (SSW) 1,721 3.7 -14.5°
